Simultaneous Nadir Overpasses (SNOs) Predictions

Prediction of SNOs between METOP-A and NOAA-19 Satellite Orbit:

Table of predicted SNOs for the next 14.0 days since TLE Epoch: 7/20/2013
Index Date (METOP-A) Time (METOP-A) Lat,Lon (METOP-A) SZA (METOP-A ) Date (NOAA-19) Time (NOAA-19) Lat,Lon (NOAA-19) SZA (NOAA-19 ) Distance(km) Time Diff (sec)
1 07/28/2013 18:43:00 74.01,-106.29 55.25 07/28/2013 18:41:51 74.02,-108.51 55.38 67.97 69
2 07/28/2013 19:33:52 -73.53, 59.89 125.17 07/28/2013 19:32:47 -73.54, 59.90 125.15 1.31 65
3 07/28/2013 20:24:31 73.49,-132.85 54.81 07/28/2013 20:23:44 73.51,-132.77 54.83 3.02 47
4 07/28/2013 21:15:13 -73.51, 34.51 125.17 07/28/2013 21:14:50 -73.51, 34.44 125.16 2.38 23
5 07/28/2013 22:05:53 73.47,-158.23 54.81 07/28/2013 22:05:48 73.49,-158.24 54.82 1.49 5
6 07/28/2013 22:56:36 -73.44, 9.01 125.22 07/28/2013 22:56:53 -73.44, 9.09 125.22 2.47 17
7 07/28/2013 23:47:15 73.45, 176.38 54.81 07/28/2013 23:47:52 73.46, 176.30 54.82 3.01 37
8 07/29/2013 00:37:58 -73.42, -16.37 125.22 07/29/2013 00:38:57 -73.42, -16.38 125.23 0.32 59
9 07/29/2013 01:28:40 73.28, 150.66 54.68 07/29/2013 01:29:53 73.29, 151.17 54.65 16.31 73




NCC Satellite Simultaneous Nadir Overpasses (SNOs) Prediction Service
